Flag for China Weather past 2 weeks in Tsingtao, Shandong, China

Now
79 °F

Passing clouds.


Feels Like: 80 °F
Forecast: 66 / 80 °F
Wind: 8 mph from Southeast

Location: Qingdao Airport

Current Time: Jul 7, 2015 at 5:59:38 PM

Latest Report: Jul 7, 2015 at 5:00 PM


Visibility: N/A

Pressure: 29.77 "Hg

Humidity: 51%

Dew point: 59 °F

Location of TsingtaoLocation

Historic Weather in Tsingtao — Graph

°F

Tsingtao temperature yesterday

Maximum temperature yesterday: 79 °F (at 12:00 PM)
Minimum temperature yesterday: 70 °F (at 12:00 AM)
Average temperature yesterday: 74 °F

Past Weeks' High & Low Weather Summary

 TemperatureHumidityPressure
High91 °F (Jul 2, 2:00 PM)100% (Jun 26, 1:00 AM)29.86 "Hg (Jun 26, 1:00 AM)
Low59 °F (Jul 1, 5:00 AM)21% (Jul 2, 5:00 PM)29.42 "Hg (Jul 1, 4:00 PM)
Average74 °F72%29.70 "Hg
* Reported Jun 22 4:00 PM — Jul 7 4:00 PM, Tsingtao, Weather by CustomWeather, © 2015

Note: Actual official high and low records may vary slightly from our data, if they occured in-between our weather recording intervals... More about our weather records

Advertising

Tsingtao weather history for previous 24 hours

 ConditionsComfort  
Time TempWeatherWind HumidityBarometerVisibility
4:00 PM
Tue, Jul 7
79 °FPassing clouds.8 mph54%29.77 "HgN/A
3:00 PM79 °FScattered clouds.10 mph51%29.80 "HgN/A
2:00 PM77 °FPassing clouds.13 mph57%29.80 "HgN/A
1:00 PM79 °FPassing clouds.13 mph58%29.80 "HgN/A
12:00 PM79 °FScattered clouds.10 mph51%29.80 "HgN/A
11:00 AM82 °FPassing clouds.3 mph40%29.83 "HgN/A
10:00 AM81 °FPassing clouds.6 mph45%29.83 "HgN/A
9:00 AM77 °FSunny.6 mph61%29.83 "Hg10 mi
8:00 AM75 °FFog.3 mph74%29.83 "Hg3 mi
7:00 AM73 °FFog.3 mph78%29.80 "Hg2 mi
6:00 AM72 °FFog.1 mph83%29.80 "Hg2 mi
5:00 AM70 °FFog.1 mph88%29.80 "Hg2 mi
4:00 AM72 °FFog.3 mph83%29.80 "Hg3 mi
3:00 AM72 °FFog.3 mph83%29.80 "Hg3 mi
2:00 AM72 °FFog.3 mph88%29.80 "Hg3 mi
1:00 AM72 °FPassing clouds.6 mph88%29.80 "Hg4 mi
12:00 AM72 °FPassing clouds.6 mph88%29.83 "Hg4 mi
11:00 PM
Mon, Jul 6
72 °FPassing clouds.8 mph83%29.83 "Hg4 mi
10:00 PM72 °FClear.8 mph83%29.83 "Hg4 mi
9:00 PM72 °FClear.10 mph83%29.83 "Hg4 mi
8:00 PM72 °FFog.10 mph83%29.83 "Hg3 mi
7:00 PM73 °FFog.13 mph78%29.80 "Hg2 mi
6:00 PM73 °FFog.15 mph78%29.80 "Hg3 mi
5:00 PM75 °FFog.15 mph78%29.80 "Hg3 mi
Weather by CustomWeather, © 2015

See weather overviewHow to use our weather pages